Kivalina, AK

9:12 AM AKDT on June 29, 2017 (GMT -0800)
Kivalina

Weather History for PAVL - January, 2014

Change the Weather History Date:

Thursday, January 2, 2014

  Actual Average (PAWN) Record (PAWN)
Temperature  
Mean Temperature 4 °F -  
Max Temperature 19 °F 0 °F 35 °F (2005)
Min Temperature -11 °F -9 °F -49 °F (2012)
Degree Days  
Heating Degree Days 61    
Moisture  
Dew Point 7 °F    
Average Humidity 79    
Maximum Humidity 85    
Minimum Humidity 74    
Precipitation  
Precipitation 0.00 in - - ()
Sea Level Pressure  
Sea Level Pressure 29.74 in    
Wind  
Wind Speed 9 mph (East)    
Max Wind Speed 14 mph    
Max Gust Speed 18 mph    
Visibility 10 miles    
Events Snow    
Averages and records for this station are not official NWS values.
T = Trace of Precipitation, MM = Missing Value Source: NWS Daily Summary

Daily Weather History Graph

Daily Weather History Graph

Search for Another Location

Airport or City:

Trip Planner

Search our weather history database for the weather conditions in past years. The results will help you decide how hot, cold, wet, or windy it might be!

Date:

Astronomy

Jan. 02, 2014 Rise Set
Actual Time 1:26 PM AKST 2:39 PM AKST
Civil Twilight 11:09 AM AKST 4:55 PM AKST
Nautical Twilight 9:45 AM AKST 6:19 PM AKST
Astronomical Twilight 8:35 AM AKST 7:29 PM AKST
Moon 12:05 PM AKST (1/2) 7:11 PM AKST (1/2)
Length of Visible Light 5h 45m
Length of Day
1h 13m
Waxing Crescent, 3% of the Moon is Illuminated
Jan 2
Waxing Crescent
Jan 7
First Quarter
Jan 15
Full
Jan 23
Last Quarter
Jan 30
New

Hourly Weather History & Observations

Time (AKST) Temp. Windchill Dew Point Humidity Pressure Visibility Wind Dir Wind Speed Gust Speed Precip Events Conditions
12:53 AM -9.0 °F -23.8 °F -14.1 °F 79% 29.58 in 10.0 mi ENE 6.9 mph - N/A   Clear
1:53 AM -11.0 °F -22.8 °F -16.1 °F 78% 29.60 in 10.0 mi NNE 4.6 mph - N/A   Clear
2:53 AM -9.9 °F -26.3 °F -15.0 °F 78% 29.62 in 10.0 mi NE 8.1 mph - N/A   Clear
3:53 AM -7.1 °F -22.8 °F -13.0 °F 75% 29.64 in 10.0 mi NE 8.1 mph - N/A   Mostly Cloudy
4:49 AM 1.4 °F -11.3 °F -4.0 °F 78% 29.64 in 10.0 mi NE 6.9 mph - N/A   Overcast
4:53 AM 3.0 °F -9.3 °F -2.9 °F 76% 29.64 in 10.0 mi NE 6.9 mph - N/A   Overcast
5:03 AM 3.2 °F -7.8 °F -2.2 °F 78% 29.64 in 10.0 mi NE 5.8 mph - N/A   Overcast
5:53 AM 8.1 °F 1.4 °F 1.9 °F 76% 29.65 in 10.0 mi ENE 3.5 mph - N/A   Overcast
6:53 AM 12.9 °F -0.9 °F 7.0 °F 77% 29.67 in 10.0 mi East 11.5 mph - N/A   Overcast
7:53 AM 14.0 °F 0.5 °F 8.1 °F 77% 29.69 in 10.0 mi East 11.5 mph - N/A   Overcast
8:53 AM 14.0 °F 1.2 °F 7.0 °F 74% 29.70 in 10.0 mi ENE 10.4 mph - N/A   Overcast
9:53 AM 16.0 °F 4.4 °F 10.9 °F 81% 29.72 in 7.0 mi East 9.2 mph - 0.00 in Snow Light Snow
10:53 AM 17.1 °F 5.8 °F 12.9 °F 84% 29.75 in 6.0 mi East 9.2 mph - 0.00 in Snow Light Snow
11:53 AM 18.0 °F 4.8 °F 12.0 °F 78% 29.76 in 10.0 mi ESE 12.7 mph - 0.00 in   Overcast
12:53 PM 19.0 °F 7.5 °F 12.9 °F 77% 29.77 in 10.0 mi ESE 10.4 mph - N/A   Overcast
1:53 PM 19.0 °F 9.0 °F 12.9 °F 77% 29.78 in 10.0 mi East 8.1 mph - N/A   Overcast
2:53 PM 19.0 °F 8.2 °F 14.0 °F 81% 29.80 in 10.0 mi East 9.2 mph - N/A   Overcast
3:30 PM 19.4 °F 6.6 °F 12.2 °F 74% 29.80 in 10.0 mi ESE 12.7 mph 18.4 mph N/A   Overcast
3:53 PM 19.0 °F 9.0 °F 14.0 °F 81% 29.80 in 10.0 mi East 8.1 mph - N/A   Overcast
4:53 PM 19.0 °F 6.1 °F 14.0 °F 81% 29.81 in 10.0 mi East 12.7 mph - N/A   Overcast
5:35 PM 19.4 °F 6.0 °F 14.0 °F 80% 29.81 in 10.0 mi ESE 13.8 mph - N/A   Overcast
5:53 PM 19.0 °F 5.6 °F 14.0 °F 81% 29.82 in 7.0 mi East 13.8 mph - 0.00 in Snow Light Snow
6:53 PM 19.0 °F 5.6 °F 14.0 °F 81% 29.83 in 10.0 mi ESE 13.8 mph - 0.00 in   Overcast
7:53 PM 19.0 °F 5.6 °F 15.1 °F 85% 29.83 in 8.0 mi East 13.8 mph - 0.00 in   Overcast
8:53 PM 19.9 °F 6.7 °F 14.0 °F 78% 29.83 in 10.0 mi ESE 13.8 mph - 0.00 in   Overcast
9:53 PM 19.9 °F 6.7 °F 15.1 °F 81% 29.84 in 10.0 mi ESE 13.8 mph - N/A   Overcast
10:53 PM 19.9 °F 7.3 °F 14.0 °F 78% 29.85 in 10.0 mi ESE 12.7 mph - 0.00 in   Overcast
11:53 PM 19.0 °F 6.8 °F 15.1 °F 85% 29.86 in 10.0 mi East 11.5 mph - N/A   Overcast